Content
SEND FEEDBACK

Daily
Averages
Monthly
Summary
United States of America

ROCK SPRINGS, WYOMING


Home > North America > United States > Wyoming
Elevation: 6752 feet     Latitude: 41 35N     Longitude: 109 03W

WEATHER
 
SELECT A DAY
Number of Records: 68,340;   Date Range: 1/3/10 - 8/27/14
 
SHARE

PRINT THIS DATA

[ ← Previous Day ]
WEATHER ALMANAC - FEBRUARY 13, 2013
[ Next Day → ]
[ °C ]   °F
Weather ElementAverageHighLow
Temperature25.9 °F32 °F (1:50 pm)21 °F (2:54 am)
Dewpoint18.8 °F21.9 °F (1:54 pm)15.8 °F (1:17 am)
Humidity74.8 %86 % (3:07 am)64 % (1:50 pm)
Barometer30.20 in30.27 in (7:54 am)30.08 in (1:50 pm)
Wind Speed28.7 mph38 mph (1:50 pm)
Wind Gust43.7 mph (1:50 pm)
Weather ElementAverage
Visibility10 mi
Wind DirectionWSW (260.7 °)

Weather ElementTotal
Precipitation---
Heating Degree Days38.5 (Base 65)
Averaged from 28 records on February 13, 2013
WEATHER CONDITIONS BREAKOUT
WIND DIRECTION BREAKOUT
WEATHER BY HOUR - FEBRUARY 13, 2013
[ °C ]   °F
Local TimeTemperatureDewpointHumidityBarometerVisibilityWind DirectionWind SpeedGust SpeedPrecipitationEventsConditions
1:17 AM21.2 °F15.8 °F80 %30.12 in10.0 miWSW (250°)32.2 mph36.8 mphMostly Cloudy
1:54 AM21.9 °F17.1 °F82 %30.25 in10.0 miWSW (250°)31.1 mph36.8 mphOvercast
2:54 AM21.0 °F17.1 °F85 %30.23 in10.0 miWSW (250°)25.3 mph38.0 mphMostly Cloudy
3:07 AM21.2 °F17.6 °F86 %30.10 in10.0 miWest (260°)28.8 mphPartly Cloudy
3:54 AM21.9 °F17.1 °F82 %30.21 in10.0 miWest (260°)29.9 mph40.3 mphPartly Cloudy
4:54 AM23.0 °F17.1 °F78 %30.23 in10.0 miWest (270°)21.9 mph28.8 mphPartly Cloudy
5:54 AM21.9 °F17.1 °F82 %30.22 in10.0 miWest (260°)34.5 mph42.6 mphClear
6:54 AM21.9 °F17.1 °F82 %30.26 in10.0 miWest (270°)31.1 mph38.0 mphClear
7:54 AM21.9 °F17.1 °F82 %30.27 in10.0 miWSW (250°)33.4 mphPartly Cloudy
8:54 AM24.1 °F17.1 °F75 %30.26 in10.0 miWest (260°)31.1 mph40.3 mphPartly Cloudy
9:07 AM24.8 °F17.6 °F74 %30.12 in10.0 miWSW (250°)29.9 mph36.8 mphMostly Cloudy
9:54 AM26.1 °F19.0 °F75 %30.25 in10.0 miWest (260°)29.9 mph38.0 mphMostly Cloudy
10:54 AM28.0 °F19.9 °F72 %30.26 in10.0 miWest (260°)25.3 mph33.4 mphMostly Cloudy
11:27 AM28.4 °F19.4 °F69 %30.12 in10.0 miWest (270°)29.9 mph39.1 mphPartly Cloudy
11:54 AM30.0 °F19.9 °F66 %30.22 in10.0 miWest (270°)34.5 mph42.6 mphPartly Cloudy
12:54 PM30.9 °F21.0 °F67 %30.20 in10.0 miWest (270°)34.5 mph42.6 mphPartly Cloudy
1:50 PM32.0 °F21.2 °F64 %30.08 in10.0 miWest (270°)38.0 mph43.7 mphMostly Cloudy
1:54 PM32.0 °F21.9 °F66 %30.17 in10.0 miWest (270°)35.7 mph43.7 mphMostly Cloudy
2:54 PM30.9 °F21.9 °F69 %30.19 in10.0 miWest (260°)24.2 mph34.5 mphOvercast
3:54 PM30.0 °F21.0 °F69 %30.21 in10.0 miWest (270°)24.2 mph29.9 mphOvercast
4:54 PM28.9 °F19.9 °F69 %30.20 in10.0 miWest (270°)28.8 mph36.8 mphScattered Clouds
5:54 PM28.0 °F19.9 °F72 %30.19 in10.0 miWest (270°)28.8 mph39.1 mphClear
6:54 PM26.1 °F19.9 °F78 %30.21 in10.0 miWest (260°)23.0 mphClear
7:54 PM26.1 °F19.0 °F75 %30.23 in10.0 miWest (260°)19.6 mphScattered Clouds
8:54 PM26.1 °F19.0 °F75 %30.21 in10.0 miWest (260°)29.9 mphClear
9:54 PM26.1 °F18.0 °F71 %30.20 in10.0 miWest (260°)27.6 mphClear
10:54 PM25.0 °F18.0 °F75 %30.19 in10.0 miWest (260°)24.2 mphClear
11:54 PM26.1 °F19.0 °F75 %30.18 in10.0 miSW (230°)15.0 mphOvercast
Hourly data recorded from KRKS, located miles away from Rock Springs, Wyoming







STORIES FROM OUR PARTNERS